Time,TemperatureF,DewpointF,PressureIn,WindDirection,WindDirectionDegrees,WindSpeedMPH,WindSpeedGustMPH,Humidity,HourlyPrecipIn,Conditions,Clouds,dailyrainin,SolarRadiationWatts/m^2,SoftwareType,DateUTC
2013-08-16 00:11:00,80.0,77.0,30.04,SE,143,0.0,0.0,89,0.00,,,0.00,0,weatherlink.com 1.10,2013-08-16 04:11:00,
2013-08-16 00:26:00,80.0,77.0,30.04,SE,143,0.0,0.0,89,0.00,,,0.00,0,weatherlink.com 1.10,2013-08-16 04:26:00,
2013-08-16 00:41:00,80.0,77.0,30.03,SE,143,0.0,0.0,89,0.00,,,0.00,0,weatherlink.com 1.10,2013-08-16 04:41:00,
2013-08-16 00:56:00,79.8,76.0,30.02,SE,143,0.0,0.0,89,0.00,,,0.00,0,weatherlink.com 1.10,2013-08-16 04:56:00,
2013-08-16 01:11:00,79.8,77.0,30.02,SE,143,0.0,0.0,90,0.00,,,0.00,0,weatherlink.com 1.10,2013-08-16 05:11:00,
2013-08-16 01:26:00,79.7,77.0,30.02,SE,143,0.0,0.0,90,0.00,,,0.00,0,weatherlink.com 1.10,2013-08-16 05:26:00,
2013-08-16 01:41:00,79.8,77.0,30.01,SE,143,0.0,0.0,90,0.00,,,0.00,0,weatherlink.com 1.10,2013-08-16 05:41:00,
2013-08-16 01:56:00,79.9,77.0,30.01,SE,143,0.0,0.0,90,0.00,,,0.00,0,weatherlink.com 1.10,2013-08-16 05:56:00,
2013-08-16 02:11:00,79.8,77.0,30.00,SE,143,0.0,1.0,90,0.00,,,0.00,0,weatherlink.com 1.10,2013-08-16 06:11:00,
2013-08-16 02:26:00,79.0,76.0,30.00,North,355,0.0,2.0,90,0.00,,,0.00,0,weatherlink.com 1.10,2013-08-16 06:26:00,
2013-08-16 02:41:00,78.6,75.0,30.00,North,355,0.0,1.0,89,0.00,,,0.00,0,weatherlink.com 1.10,2013-08-16 06:41:00,
2013-08-16 02:56:00,78.2,75.0,30.00,ESE,114,2.0,2.0,89,0.00,,,0.00,0,weatherlink.com 1.10,2013-08-16 06:56:00,
2013-08-16 03:11:00,78.3,75.0,29.99,ESE,120,0.0,1.0,88,0.00,,,0.00,0,weatherlink.com 1.10,2013-08-16 07:11:00,
2013-08-16 03:26:00,78.3,75.0,29.99,ESE,120,0.0,1.0,88,0.00,,,0.00,0,weatherlink.com 1.10,2013-08-16 07:26:00,
2013-08-16 03:41:00,78.3,75.0,29.99,ESE,120,0.0,1.0,88,0.00,,,0.00,0,weatherlink.com 1.10,2013-08-16 07:41:00,
2013-08-16 03:56:00,78.3,75.0,29.98,ESE,120,0.0,0.0,88,0.00,,,0.00,0,weatherlink.com 1.10,2013-08-16 07:56:00,
2013-08-16 04:11:00,78.2,74.0,29.98,ESE,120,0.0,0.0,88,0.00,,,0.00,0,weatherlink.com 1.10,2013-08-16 08:11:00,
2013-08-16 04:26:00,78.2,74.0,29.98,ESE,120,0.0,0.0,88,0.00,,,0.00,0,weatherlink.com 1.10,2013-08-16 08:26:00,
2013-08-16 04:41:00,78.1,74.0,29.98,ESE,120,0.0,0.0,88,0.00,,,0.00,0,weatherlink.com 1.10,2013-08-16 08:41:00,
2013-08-16 04:56:00,78.2,75.0,29.99,ESE,120,0.0,0.0,89,0.00,,,0.00,0,weatherlink.com 1.10,2013-08-16 08:56:00,
2013-08-16 05:11:00,78.3,75.0,29.99,ESE,120,0.0,0.0,89,0.00,,,0.00,0,weatherlink.com 1.10,2013-08-16 09:11:00,
2013-08-16 05:26:00,78.2,75.0,29.99,ESE,120,0.0,0.0,89,0.00,,,0.00,0,weatherlink.com 1.10,2013-08-16 09:26:00,
2013-08-16 05:41:00,78.3,75.0,30.00,ESE,120,0.0,0.0,89,0.00,,,0.00,0,weatherlink.com 1.10,2013-08-16 09:41:00,
2013-08-16 05:56:00,78.2,75.0,30.00,ESE,120,0.0,0.0,89,0.00,,,0.00,0,weatherlink.com 1.10,2013-08-16 09:56:00,
2013-08-16 06:11:00,78.2,75.0,30.00,ESE,120,0.0,0.0,89,0.00,,,0.00,0,weatherlink.com 1.10,2013-08-16 10:11:00,
2013-08-16 06:26:00,78.0,75.0,30.01,ESE,120,0.0,0.0,90,0.00,,,0.00,0,weatherlink.com 1.10,2013-08-16 10:26:00,
2013-08-16 06:41:00,78.2,75.0,30.01,ESE,120,0.0,0.0,90,0.00,,,0.00,0,weatherlink.com 1.10,2013-08-16 10:41:00,
2013-08-16 06:56:00,78.1,75.0,30.01,ESE,120,0.0,0.0,90,0.00,,,0.00,0,weatherlink.com 1.10,2013-08-16 10:56:00,
2013-08-16 07:11:00,78.0,75.0,30.02,ESE,120,0.0,0.0,91,0.00,,,0.00,16,weatherlink.com 1.10,2013-08-16 11:11:00,
2013-08-16 07:26:00,78.1,75.0,30.02,ESE,120,0.0,0.0,91,0.00,,,0.00,26,weatherlink.com 1.10,2013-08-16 11:26:00,
2013-08-16 07:41:00,78.3,76.0,30.03,ESE,120,0.0,0.0,91,0.00,,,0.00,37,weatherlink.com 1.10,2013-08-16 11:41:00,
2013-08-16 07:57:00,78.7,76.0,30.03,ESE,120,0.0,0.0,91,0.00,,,0.00,63,weatherlink.com 1.10,2013-08-16 11:57:00,
2013-08-16 08:12:00,79.9,77.0,30.03,ESE,120,0.0,0.0,92,0.00,,,0.00,132,weatherlink.com 1.10,2013-08-16 12:12:00,
2013-08-16 08:27:00,81.3,79.0,30.03,ESE,120,0.0,1.0,92,0.00,,,0.00,134,weatherlink.com 1.10,2013-08-16 12:27:00,
2013-08-16 08:42:00,82.3,79.0,30.03,NE,56,1.0,2.0,90,0.00,,,0.00,260,weatherlink.com 1.10,2013-08-16 12:42:00,
2013-08-16 08:57:00,83.2,79.0,30.03,ESE,105,1.0,3.0,86,0.00,,,0.00,285,weatherlink.com 1.10,2013-08-16 12:57:00,
2013-08-16 09:12:00,85.0,79.0,30.03,ESE,107,1.0,4.0,82,0.00,,,0.00,403,weatherlink.com 1.10,2013-08-16 13:12:00,
2013-08-16 09:27:00,86.8,79.0,30.03,ESE,109,0.0,2.0,77,0.00,,,0.00,499,weatherlink.com 1.10,2013-08-16 13:27:00,
2013-08-16 09:42:00,87.3,78.0,30.03,East,98,3.0,6.0,73,0.00,,,0.00,519,weatherlink.com 1.10,2013-08-16 13:42:00,
2013-08-16 09:57:00,85.0,77.0,30.04,ESE,112,1.0,6.0,77,0.00,,,0.00,134,weatherlink.com 1.10,2013-08-16 13:57:00,
2013-08-16 10:12:00,84.8,78.0,30.03,East,80,3.0,3.0,80,0.00,,,0.00,269,weatherlink.com 1.10,2013-08-16 14:12:00,
2013-08-16 10:27:00,86.0,78.0,30.03,ESE,107,7.0,10.0,78,0.00,,,0.00,657,weatherlink.com 1.10,2013-08-16 14:27:00,
2013-08-16 10:42:00,85.7,79.0,30.04,East,84,2.0,7.0,79,0.00,,,0.00,838,weatherlink.com 1.10,2013-08-16 14:42:00,
2013-08-16 10:57:00,86.9,79.0,30.03,SE,126,2.0,7.0,76,0.00,,,0.00,768,weatherlink.com 1.10,2013-08-16 14:57:00,
2013-08-16 11:12:00,86.8,78.0,30.03,East,101,3.0,8.0,75,0.00,,,0.00,707,weatherlink.com 1.10,2013-08-16 15:12:00,
2013-08-16 11:27:00,87.2,78.0,30.03,SE,140,3.0,8.0,75,0.00,,,0.00,884,weatherlink.com 1.10,2013-08-16 15:27:00,
2013-08-16 11:42:00,87.1,77.0,30.03,ESE,121,3.0,8.0,72,0.00,,,0.00,932,weatherlink.com 1.10,2013-08-16 15:42:00,
2013-08-16 11:57:00,88.1,78.0,30.03,SE,138,1.0,8.0,72,0.00,,,0.00,932,weatherlink.com 1.10,2013-08-16 15:57:00,
2013-08-16 12:12:00,87.4,77.0,30.03,East,98,6.0,9.0,72,0.00,,,0.00,371,weatherlink.com 1.10,2013-08-16 16:12:00,
2013-08-16 12:27:00,87.8,77.0,30.03,ENE,74,1.0,9.0,71,0.00,,,0.00,872,weatherlink.com 1.10,2013-08-16 16:27:00,
2013-08-16 12:42:00,87.6,78.0,30.02,ESE,115,6.0,9.0,74,0.00,,,0.00,1042,weatherlink.com 1.10,2013-08-16 16:42:00,
2013-08-16 12:57:00,88.0,78.0,30.02,East,85,4.0,9.0,71,0.00,,,0.00,724,weatherlink.com 1.10,2013-08-16 16:57:00,
2013-08-16 13:12:00,87.8,78.0,30.02,SE,126,1.0,10.0,72,0.00,,,0.00,1069,weatherlink.com 1.10,2013-08-16 17:12:00,
2013-08-16 13:27:00,88.3,77.0,30.02,SE,130,3.0,9.0,70,0.00,,,0.00,970,weatherlink.com 1.10,2013-08-16 17:27:00,
2013-08-16 13:42:00,88.6,78.0,30.01,ESE,105,2.0,9.0,70,0.00,,,0.00,988,weatherlink.com 1.10,2013-08-16 17:42:00,
2013-08-16 13:57:00,88.1,77.0,30.01,ENE,76,4.0,8.0,69,0.00,,,0.00,900,weatherlink.com 1.10,2013-08-16 17:57:00,
2013-08-16 14:12:00,88.6,77.0,30.01,SE,138,2.0,10.0,69,0.00,,,0.00,944,weatherlink.com 1.10,2013-08-16 18:12:00,
2013-08-16 14:27:00,88.7,77.0,30.00,ESE,107,6.0,9.0,69,0.00,,,0.00,949,weatherlink.com 1.10,2013-08-16 18:27:00,
2013-08-16 14:42:00,88.8,77.0,29.99,ESE,123,5.0,8.0,69,0.00,,,0.00,895,weatherlink.com 1.10,2013-08-16 18:42:00,
2013-08-16 14:57:00,87.8,78.0,29.99,ESE,117,3.0,11.0,72,0.00,,,0.00,241,weatherlink.com 1.10,2013-08-16 18:57:00,
2013-08-16 15:12:00,87.5,77.0,29.99,East,98,2.0,8.0,70,0.00,,,0.00,304,weatherlink.com 1.10,2013-08-16 19:12:00,
2013-08-16 15:27:00,88.6,78.0,29.98,ESE,109,6.0,9.0,71,0.00,,,0.00,844,weatherlink.com 1.10,2013-08-16 19:27:00,
2013-08-16 15:42:00,88.1,77.0,29.98,SE,139,3.0,9.0,70,0.00,,,0.00,849,weatherlink.com 1.10,2013-08-16 19:42:00,
2013-08-16 15:58:00,88.2,76.0,29.97,ESE,103,4.0,9.0,68,0.00,,,0.00,749,weatherlink.com 1.10,2013-08-16 19:58:00,
2013-08-16 16:12:00,88.1,78.0,29.97,ENE,67,4.0,9.0,73,0.00,,,0.00,708,weatherlink.com 1.10,2013-08-16 20:12:00,
2013-08-16 16:28:00,88.0,77.0,29.97,East,88,4.0,8.0,70,0.00,,,0.00,684,weatherlink.com 1.10,2013-08-16 20:28:00,
2013-08-16 16:43:00,87.7,77.0,29.97,ENE,76,4.0,9.0,71,0.00,,,0.00,619,weatherlink.com 1.10,2013-08-16 20:43:00,
2013-08-16 16:58:00,88.3,79.0,29.98,East,100,9.0,11.0,73,0.00,,,0.00,580,weatherlink.com 1.10,2013-08-16 20:58:00,
2013-08-16 17:13:00,87.3,78.0,29.98,SSE,150,1.0,9.0,74,0.00,,,0.00,118,weatherlink.com 1.10,2013-08-16 21:13:00,
2013-08-16 17:28:00,86.9,78.0,29.98,ESE,117,4.0,9.0,75,0.00,,,0.00,234,weatherlink.com 1.10,2013-08-16 21:28:00,
2013-08-16 17:43:00,87.0,77.0,29.98,ESE,117,4.0,8.0,73,0.00,,,0.00,76,weatherlink.com 1.10,2013-08-16 21:43:00,
2013-08-16 17:58:00,86.8,78.0,29.98,ESE,115,2.0,9.0,75,0.00,,,0.00,72,weatherlink.com 1.10,2013-08-16 21:58:00,
2013-08-16 18:13:00,86.3,78.0,29.98,ESE,112,3.0,10.0,75,0.00,,,0.00,69,weatherlink.com 1.10,2013-08-16 22:13:00,
2013-08-16 18:28:00,86.1,78.0,29.98,SSE,165,4.0,9.0,76,0.00,,,0.00,69,weatherlink.com 1.10,2013-08-16 22:28:00,
2013-08-16 18:43:00,85.9,78.0,29.98,ENE,78,3.0,8.0,77,0.00,,,0.00,165,weatherlink.com 1.10,2013-08-16 22:43:00,
2013-08-16 18:58:00,85.7,79.0,29.98,SSE,155,4.0,8.0,79,0.00,,,0.00,54,weatherlink.com 1.10,2013-08-16 22:58:00,
2013-08-16 19:28:00,84.9,78.0,29.98,East,94,4.0,5.0,79,0.00,,,0.00,14,weatherlink.com 1.10,2013-08-16 23:28:00,
2013-08-16 19:43:00,84.7,78.0,29.99,East,87,3.0,6.0,80,0.00,,,0.00,7,weatherlink.com 1.10,2013-08-16 23:43:00,
2013-08-16 19:58:00,84.5,78.0,30.00,ESE,119,3.0,7.0,80,0.00,,,0.00,0,weatherlink.com 1.10,2013-08-16 23:58:00,
2013-08-16 20:13:00,84.4,78.0,30.01,ESE,114,2.0,7.0,81,0.00,,,0.00,0,weatherlink.com 1.10,2013-08-17 00:13:00,
2013-08-16 20:28:00,84.2,78.0,30.02,ESE,121,2.0,7.0,81,0.00,,,0.00,0,weatherlink.com 1.10,2013-08-17 00:28:00,
2013-08-16 20:43:00,84.1,78.0,30.02,ESE,109,2.0,6.0,81,0.00,,,0.00,0,weatherlink.com 1.10,2013-08-17 00:43:00,
2013-08-16 20:58:00,84.1,78.0,30.02,SSE,157,3.0,8.0,82,0.00,,,0.00,0,weatherlink.com 1.10,2013-08-17 00:58:00,
2013-08-16 21:13:00,83.9,78.0,30.03,ESE,107,2.0,4.0,82,0.00,,,0.00,0,weatherlink.com 1.10,2013-08-17 01:13:00,
2013-08-16 21:28:00,83.8,78.0,30.04,ESE,120,1.0,4.0,82,0.00,,,0.00,0,weatherlink.com 1.10,2013-08-17 01:28:00,
2013-08-16 21:43:00,83.8,78.0,30.04,ESE,105,1.0,4.0,82,0.00,,,0.00,0,weatherlink.com 1.10,2013-08-17 01:43:00,
2013-08-16 21:58:00,83.6,78.0,30.04,East,84,0.0,4.0,83,0.00,,,0.00,0,weatherlink.com 1.10,2013-08-17 01:58:00,
2013-08-16 22:13:00,83.4,78.0,30.04,East,92,1.0,3.0,83,0.00,,,0.00,0,weatherlink.com 1.10,2013-08-17 02:13:00,
2013-08-16 22:28:00,83.3,78.0,30.04,East,100,3.0,3.0,83,0.00,,,0.00,0,weatherlink.com 1.10,2013-08-17 02:28:00,
2013-08-16 22:43:00,83.3,78.0,30.04,East,96,0.0,4.0,83,0.00,,,0.00,0,weatherlink.com 1.10,2013-08-17 02:43:00,
2013-08-16 22:58:00,83.3,78.0,30.04,ESE,112,1.0,6.0,84,0.00,,,0.00,0,weatherlink.com 1.10,2013-08-17 02:58:00,
2013-08-16 23:13:00,83.3,78.0,30.04,ESE,110,1.0,3.0,84,0.00,,,0.00,0,weatherlink.com 1.10,2013-08-17 03:13:00,
2013-08-16 23:28:00,83.3,78.0,30.03,ESE,113,2.0,4.0,84,0.00,,,0.00,0,weatherlink.com 1.10,2013-08-17 03:28:00,
2013-08-16 23:43:00,83.3,78.0,30.03,East,94,3.0,6.0,84,0.00,,,0.00,0,weatherlink.com 1.10,2013-08-17 03:43:00,
2013-08-16 23:58:00,83.2,78.0,30.03,ESE,123,0.0,3.0,84,0.00,,,0.00,0,weatherlink.com 1.10,2013-08-17 03:58:00,